Location: Silent Lake
(44.9206°N, 78.0708°W)
Time: 16:49:33
(UTC-04:00)

SPOT 5 - Pass Details

Date: 19 April 2018
Orbit: 623 x 816 km, 98.3° (Epoch: 19 September)

Event Time Altitude Azimuth Distance (km) Brightness Sun altitude
Exits shadow 22:30:33 68° 125° (SE) 731 2.6 -22.9°
Maximum altitude 22:31:01 76° 74° (ENE) 701 2.6 -23.0°
Drops below altitude 10° 22:35:30 10° 350° (N) 2,069 6.0 -23.5°
Sets 22:37:41 0° 348° (NNW) 2,963 7.0 -23.8°
